sat.trackr.live / text

‹ back to catalog

STARLINK-36274

NORAD 68251 · 2026-054V

PAYLOAD ACTIVE UNKNOWN

§ Identity

Operator
Country
US
Launch date
2026-03-17
Launch site
AFETR
Launch vehicle
Mass (kg)
RCS (m²)

Purposes: comms

External: N2YO · Heavens-Above · Gunter

§ Orbital elements

Epoch: 2026-05-24T22:07:59.158272Z

Period
94.10 min
Inclination
53.1573°
Eccentricity
0.0000920
Mean motion
15.30206134 rev/d
Perigee alt
474.6 km
Apogee alt
475.8 km
Semi-major
6,853.3 km
B*
4.5348e-4
RAAN
302.7892°
Arg perigee
83.7010°
Mean anomaly
276.4095°
Rev number
1,066

§ Raw data

STARLINK-362741 68251U 26054V   26144.92221248  .00013098  00000+0  45348-3 0  99932 68251  53.1573 302.7892 0000920  83.7010 276.4095 15.30206134 10660

JSON: /api/v1/satellites/68251 · /tle

For live sub-satellite position, see the globe view (requires WebGL).

§ Visibility from observer

Set your observer location to see the next 7 days of passes ≥ 10°. The values pass through the URL so the page stays shareable.

No JS? Fill the form by hand. The geolocation button needs JavaScript.